Погода в Беное

Россия / Чеченская Республика     43°03′50″N   46°00′59″E
темп.,
°C
ветер,
м/с
пор.,
м/с
влажн.,
%
обл.,
%
осадки,
мм/ч
давл.,
гПа
погр.,
м
26 июня, вс
вс2600:00+16ю2282100 0.1 100927
03:00+15ю1186100 0.4 100927
06:00+16зюз0185100 0.0 1009136
09:00+20с3270100 0.0 1008915
12:00+18зсз1283100 0.6 1008466
15:00+22ссз2166100 0.9 1007938
18:00+20сз1278100 0.2 1007296
21:00+17ююз1196100 3.0 100916
27 июня, пн
пн2700:00+16юз119853 0.4 101034
03:00+16ююз22968 0.4 101034
06:00+16юз119667 0.0 1011123
09:00+21сз226925 0.0 1010797
12:00+23зсз336083 0.1 10111297
15:00+23зсз226178 0.9 10101035
18:00+21юз128093 2.0 1011268
21:00+18ю2286100 4.6 101230
28 июня, вт
вт2800:00+17юз1192100 0.6 101212
03:00+17юз119594 0.7 101220
06:00+17ссз119897 0.2 1012120
09:00+19сз118263 0.9 1012487
12:00+23ссз125939 0.2 10121195
15:00+25ссв224568 0.3 10111816
18:00+22с246039 0.1 1012140
21:00+16ю228142 0.4 101517
29 июня, ср
ср2900:00+15ю327813 0.0 101430
03:00+15ю2273100 0.0 101424
06:00+18ююв117197 0.0 101437
09:00+22ссв334660 0.1 10141192
12:00+25всв224320 0.9 10131623
15:00+26всв223831 1.1 10121965
18:00+22всв3562100 0.1 1013327
21:00+17ююв228193 0.1 101423
30 июня, чт
чт3000:00+16ююз1183100 0.0 101513
03:00+15юв1189100 0.0 101411
06:00+17с00829 0.0 1014125
09:00+19с218194 0.1 1014692
12:00+19ссз127897 0.3 1014569
15:00+21всв236697 0.6 10131247
18:00+19в237155 0.1 1015474
21:00+16ююв228793 0.4 101625